Other Public Products
Issued by NWS Grand Forks, ND

Home | Current Version | Previous Version | Graphics & Text | Print | Product List | Glossary On
Versions: 1 2 3 4 5 6 7 8 9 10 11 12 13 14 15 16 17 18 19 20 21 22 23 24 25 26 27 28 29 30 31 32 33 34 35 36 37 38 39 40 41 42 43 44 45 46 47 48 49 50
000
FPUS83 KFGF 170331
OPUFGF
PRAIRIE TO PINES WEATHER ROUNDUP
NATIONAL WEATHER SERVICE EASTERN NORTH DAKOTA/GRAND FORKS ND
1000 PM CDT WED AUG 16 2017

 **SATELLITE DATA USED TO AUGMENT SKY COVER AT AUTOMATED STATIONS**
 *****  WEATHER ACROSS EASTERN NORTH DAKOTA  *****

CITY           SKY/WX    TMP DP  RH WIND       PRES   REMARKS
GRAND FORKS    CLOUDY    64  64 100 N6        29.82S
GRAND FORKS AF FAIR      61  61 100 N6        29.84S
GRAND CITY NWS NOT AVBL
BUXTON           N/A     64  64  98 N5          N/A
DEVILS LAKE    FAIR      61  58  90 N6        29.87S
FARGO          CLOUDY    65  65 100 N9        29.79S
WAHPETON ARPT  CLOUDY    63  61  94 N12G18    29.78R
$$

 *****  WEATHER ACROSS CENTRAL AND WESTERN NORTH DAKOTA  *****

CITY           SKY/WX    TMP DP  RH WIND       PRES   REMARKS
JAMESTOWN      FAIR      60  57  89 N7        29.85R
BISMARCK       FAIR      67  56  67 N6        29.90R
MINOT          FAIR      65  53  65 CALM      29.89R
MINOT AFB      FAIR      63  54  72 S6        29.87S
GARRISON         N/A     63  56  78 CALM      29.90R
WILLISTON      FAIR      75  55  49 SE10      29.86S
DICKINSON      FAIR      63  54  72 SE7       29.91S
HETTINGER      FAIR      64  53  67 SE6       29.95S
$$

 *****  OTHER OBSERVATIONS NORTHEAST NORTH DAKOTA  *****

CITY           SKY/WX    TMP DP  RH WIND       PRES   REMARKS
WALHALLA       FAIR      61  61 100 CALM      29.85S
LANGDON        FAIR      59  59 100 CALM      29.88S
CAVALIER       FAIR      63  61  94 CALM      29.84F
GRAFTON        FAIR      61  61 100 CALM      29.85F
CANDO          FAIR      61  61 100 CALM      29.89S
FORT TOTTEN      N/A     65  60  84 CALM      29.95S
ROLLA          MOCLDY    55  55 100 NW9       29.89S
RUGBY          FAIR      61  54  77 N3        29.87F
 ***** THE ABOVE OBSERVATIONS ARE NON NWS ARE NOT QUALITY
        CONTROLLED AND MAY MIS-REPORT RAIN FOR SNOW...
$$

 *****  OTHER OBSERVATIONS SOUTHEAST NORTH DAKOTA *****

CITY           SKY/WX    TMP DP  RH WIND       PRES   REMARKS
COOPERSTOWN    FAIR      61  61 100 N5        29.86S
VALLEY CITY      N/A     63  63 100 N9        29.86S
OAKES          NOT AVBL
GWINNER        CLOUDY    64  63  94 N9        29.82R
SHEYENNE NWR     N/A     64  64 100 N5        29.95S
BUFFALO          N/A     62  60  91 NW6         N/A
WYNDMERE       NOT AVBL
 ***** THE ABOVE OBSERVATIONS ARE NON NWS ARE NOT QUALITY
       CONTROLLED AND MAY MIS-REPORT RAIN FOR SNOW...
$$

  *****  WEATHER ACROSS NORTHERN MINNESOTA  *****

CITY           SKY/WX    TMP DP  RH WIND       PRES   REMARKS
FLAG ISLAND    CLOUDY    63  57  82 E5        29.85F
WARROAD        CLOUDY    63  57  82 E13       29.85F FOG
ROSEAU         CLOUDY    63  57  82 E8        29.84F HAZE
HALLOCK        FAIR      63  61  94 NE5       29.84S
THF RVR FALLS  CLOUDY    63  63 100 NE6       29.83S
HALSTAD          N/A     64  64 100 N8          N/A
FOSSTON        CLOUDY    63  63 100 N5        29.82S FOG
BAUDETTE       CLOUDY    61  61 100 E8        29.84S FOG
WASKISH        DRIZZLE   63  63 100 E6        29.82F
CROOKSTON      CLOUDY    64  63  94 N7        29.82S
$$
  *****  WEATHER ACROSS CENTRAL AND WEST MINNESOTA  *****

CITY           SKY/WX    TMP DP  RH WIND       PRES   REMARKS
BEMIDJI        LGT RAIN  64  63  97 E6        29.81S
PARK RAPIDS    CLOUDY    66  63  90 E7        29.80R
WADENA         RAIN      64  64 100 NE5       29.77F
DETROIT LAKES  RAIN      64  63  94 NE5       29.81R
MOORHEAD       CLOUDY    64  63  94 N7        29.80R
FERGUS FALLS   RAIN      66  66 100 N5        29.77R
ELBOW LAKE     RAIN      65  65  99 NE8       29.76S
MORRIS MN      LGT RAIN  66  66 100 N9        29.72F
STAPLES        RAIN      63  63 100 NE3       29.78S
WHEATON        RAIN      66  63  88 N10       29.78R
$$
  *****  WEATHER ELSEWHERE ACROSS MINNESOTA  *****

CITY           SKY/WX    TMP DP  RH WIND       PRES   REMARKS
DULUTH         LGT RAIN  60  58  92 E17       29.82F
INTRNTL FALLS  LGT RAIN  61  59  93 E7        29.86F
ELY            RAIN      57  57 100 E6        29.88S
CLOQUET        CLOUDY    61  57  88 E10       29.81F
BRAINERD       HVY RAIN  63  62  97 NE8       29.77S FOG
HIBBING        CLOUDY    59  58  96 NE6       29.85S
ALEXANDRIA     LGT RAIN  66  66 100 NE10      29.76S
SAINT CLOUD    RAIN      68  68 100 NE15G24   29.66F FOG
MINNEAPOLIS    CLOUDY    70  67  90 E8        29.63S
$$

  *****  WEATHER ACROSS SOUTH DAKOTA  *****

CITY           SKY/WX    TMP DP  RH WIND       PRES   REMARKS
SIOUX FALLS    LGT RAIN  67  67 100 NW3       29.75R FOG
BROOKINGS      RAIN      65  64  97 N8        29.74R
WATERTOWN      LGT RAIN  65  65 100 N21       29.76R
HURON          CLOUDY    66  65  96 NW15      29.82R
SISSETON         N/A     66  66 100 N14       29.76R
ABERDEEN       FAIR      65  63  93 NW10      29.82S
MITCHELL       LGT RAIN  67  66  97 NW13      29.82R
PIERRE         FAIR      61  55  81 NW7       29.89R
MOBRIDGE       FAIR      61  59  93 N5        29.88R
RAPID CITY     FAIR      64  51  62 SE3       29.99R
$$

  *****  SOME WEATHER IN NEARBY STATES *****

CITY           SKY/WX    TMP DP  RH WIND       PRES   REMARKS
GLASGOW MT     MOCLDY    81  41  24 E12       29.81R
GREAT FALLS MT FAIR      74  26  16 CALM      29.91S
CHEYENNE WY    FAIR      63  45  51 S7        30.20R
SCOTTSBLUFF NE FAIR      62  54  74 SE6       30.07R
OMAHA NE       DRIZZLE   71  65  81 NW16G26   29.82R
DES MOINES IA  FAIR      76  66  71 SW12      29.75S
DAVENPORT IA   FAIR      77  72  84 S12       29.80F
CHICAGO IL     CLOUDY    78  73  84 S12       29.85F
EAU CLAIRE WI  RAIN      69  67  93 E18G36    29.69F FOG
LA CROSSE WI   CLOUDY    77  73  87 SE9       29.69F
$$

  *****  SOME NATIONAL WEATHER *****

CITY           SKY/WX    TMP DP  RH WIND       PRES   REMARKS
LA GUARDIA NY  FAIR      80  63  55 NW3       30.00R
RALEIGH NC     MOCLDY    80  73  79 S3        30.06R
ATLANTA GA     FAIR      82  74  76 W5        30.10R
NEW ORLEANS LA FAIR      80  76  87 E6        30.06R
OKLAHOMA CITY  TSTM      70  69  97 N12G33    29.94R FOG
ALBUQUERQUE NM FAIR      82  36  19 S9        30.10R
SALT LAKE CITY MOCLDY    82  38  20 N6        30.02R
LOS ANGELES CA FAIR      67  62  84 W13       29.94R
BOISE ID       FAIR      79  36  21 NW6       29.94S
SEATTLE WA     FAIR      72  52  49 NW6       30.07S
$$

*** WEATHER ACROSS MANITOBA...SASKATCHEWAN AND ONTARIO ***
                ***ONTARIO***

CITY           SKY/WX    TMP DP  RH WIND       PRES   REMARKS
GERALDTON      MOCLDY    59  54  82 CALM      29.99S
THUNDER BAY    CLOUDY    61  59  94 E8        29.94S
SIOUX LOOKOUT  CLOUDY    61  59  94 N3        29.90S
TORONTO        PTCLDY    68  59  73 E2        30.07R
BIG TROUT LK   CLOUDY    66  59  77 SW3       29.89S
PICKLE LAKE    NOT AVBL
DRYDEN         CLOUDY    61  55  82 E3        29.90F
KENORA         MOCLDY    63  59  88 E5        29.90S
$$
                *** MANITOBA***

CITY           SKY/WX    TMP DP  RH WIND       PRES   REMARKS
BRANDON        CLEAR     57  52  82 W6        29.87R
DAUPHIN        CLEAR     59  54  82 SW7       29.84R
ISLAND LAKE    MOCLDY    64  61  88 S6        29.84S
PILOT MOUND    NOT AVBL
THE PAS        MOCLDY    66  52  59 W2        29.78S
THOMPSON       PTCLDY    64  59  82 SE3       29.73F
WINNIPEG       MOCLDY    64  59  82 SE7       29.85S
LYNN LAKE      CLOUDY    63  54  72 MISG      29.68R HAZE
CHURCHILL      CLOUDY    68  55  64 W10       29.77R
GILLAM         MOCLDY    64  59  82 SE6       29.79F
$$
                ***SASKATCHEWAN***

CITY           SKY/WX    TMP DP  RH WIND       PRES   REMARKS
ESTEVAN        PTCLDY    63  52  67 SE8       29.87S
KINDERSLEY     PTCLDY    64  48  55 SE12      29.83S
LLOYDMINSTER   CLOUDY    63  59  88 CALM      29.82S
PRINCE ALBERT  PTCLDY    63  50  63 SW3       29.84S
REGINA         MOCLDY    70  43  37 NE8       29.87R
YORKTON        CLEAR     63  50  63 CALM      29.87R



USA.gov is the U.S. government's official web portal to all federal, state and local government web resources and services.